This demonstration page uses our WeatherBlox Daily Observations layout. Learn more.

Left ArrowRight Arrow

Hourly Observations for July 13, 2015

Temp ( °F °C ) Dew Point ( °F °C ) Humidity (%) Winds ( mph kmh ) Pressure ( in mb ) Visibility ( mi km ) Precip ( " mm )
12:53 am 00:53 Clear 83 28.3 59 15 44 44 SSE 14 22 29.89 1012 10 16 0.00 0.00
1:53 am 01:53 Clear 80 26.7 59 15 49 49 SSE 9 15 29.88 1012 10 16 0.00 0.00
2:53 am 02:53 Clear 78 25.6 60 15.6 54 54 SE 8 13 29.87 1012 10 16 0.00 0.00
3:53 am 03:53 Clear 76 24.4 60 15.6 58 58 SE 8 13 29.86 1011 10 16 0.00 0.00
4:53 am 04:53 Clear 75 23.9 60 15.6 60 60 SE 10 17 29.85 1011 10 16 0.00 0.00
5:53 am 05:53 Clear 73 22.8 60 15.6 64 64 ESE 8 13 29.85 1011 10 16 0.00 0.00
6:53 am 06:53 Clear 72 22.2 60 15.6 66 66 ESE 8 13 29.85 1011 10 16 0.00 0.00
7:53 am 07:53 Sunny 74 23.3 60 15.6 62 62 SE 8 13 29.86 1011 10 16 0.00 0.00
8:53 am 08:53 Sunny 79 26.1 60 15.6 52 52 SE 7 11 29.87 1011 10 16 0.00 0.00
9:53 am 09:53 Sunny 83 28.3 60 15.6 46 46 ESE 6 9 29.87 1012 10 16 0.00 0.00
10:53 am 10:53 Sunny 89 31.7 58 14.4 35 35 VRB 3 6 29.85 1011 10 16 0.00 0.00
11:53 am 11:53 Sunny 94 34.4 57 13.9 29 29 VRB 6 9 29.84 1011 10 16 0.00 0.00
12:53 pm 12:53 Sunny 98 36.7 56 13.3 24 24 S 5 7 29.82 1010 10 16 0.00 0.00
1:53 pm 13:53 Sunny 102 38.9 50 10 17 17 E 8 13 29.79 1009 10 16 0.00 0.00
2:53 pm 14:53 Sunny 102 38.9 49 9.4 17 17 VRB 5 7 29.77 1008 10 16 0.00 0.00
3:53 pm 15:53 Sunny 103 39.4 43 6.1 13 13 Calm 29.74 1007 10 16 0.00 0.00
4:53 pm 16:53 Sunny 104 40 41 5 12 12 SSE 7 11 29.72 1006 10 16 0.00 0.00
5:53 pm 17:53 Sunny 103 39.4 42 5.6 12 12 SE 10 17 29.70 1006 10 16 0.00 0.00
6:53 pm 18:53 Sunny 102 38.9 46 7.8 15 15 SE 9 15 29.69 1005 10 16 0.00 0.00
7:53 pm 19:53 Sunny 101 38.3 45 7.2 15 15 ESE 13 20 29.68 1005 10 16 0.00 0.00
8:53 pm 20:53 Sunny 97 36.1 48 8.9 19 19 ESE 14 22 29.70 1006 10 16 0.00 0.00
9:53 pm 21:53 Clear 92 33.3 55 12.8 29 29 SE 18 30 29.71 1006 10 16 0.00 0.00
10:53 pm 22:53 Clear 90 32.2 55 12.8 31 31 SE 18 30 29.74 1007 10 16 0.00 0.00
11:53 pm 23:53 Clear 87 30.6 55 12.8 34 34 SSE 14 22 29.75 1008 10 16 0.00 0.00

Powered by AerisWeather